Printer-friendly version

IAU Minor Planet Center

Minor Planet Center

MPEC 2006-E29 : 2006 EH1

The following Minor Planet Electronic Circular may be linked-to from your own Web pages, but must not otherwise be redistributed electronically.


Read MPEC 2006-E28 Read MPEC 2006-E30


M.P.E.C. 2006-E29                                Issued 2006 Mar. 7, 00:09 UT

     The Minor Planet Electronic Circulars contain information on unusual
         minor planets and routine data on comets.  They are published
   on behalf of Commission 20 of the International Astronomical Union by the
          Minor Planet Center, Smithsonian Astrophysical Observatory,
                          Cambridge, MA 02138, U.S.A.

                  Supported in part by the Brinson Foundation
                  Supported in part by the TABASGO Foundation
             Prepared using the Tamkin Foundation Computer Network

                              MPC@CFA.HARVARD.EDU
          URL http://cfa-www.harvard.edu/iau/mpc.html  ISSN 1523-6714

                                   2006 EH1

Observations:
     K06E01H* C2006 03 05.23243 08 56 47.11 +15 41 41.7          18.9 V EE029703
     K06E01H  C2006 03 05.23818 08 56 42.68 +15 43 59.9          18.8 V EE029703
     K06E01H  C2006 03 05.24367 08 56 38.50 +15 46 11.9          19.2 V EE029703
     K06E01H  C2006 03 05.24915 08 56 34.29 +15 48 26.5          18.9 V EE029703
     K06E01H  C2006 03 05.31587 08 55 42.27 +16 16 04.4                 EE029703
     K06E01H  C2006 03 05.32065 08 55 38.53 +16 18 03.8          19.0 V EE029703
     K06E01H  C2006 03 05.32542 08 55 34.76 +16 20 04.4          19.4 V EE029703
     K06E01H  C2006 03 05.33007 08 55 31.01 +16 22 06.2                 EE029703
     K06E01H  C2006 03 05.36690 08 55 02.20 +16 37 59.6          19.1 V EE029703
     K06E01H  C2006 03 05.36777 08 55 01.56 +16 38 23.2          18.9 V EE029703
     K06E01H  C2006 03 05.36863 08 55 00.94 +16 38 43.9          19.1 V EE029703
     K06E01H  C2006 03 05.36950 08 55 00.19 +16 39 07.1          18.6 V EE029703
     K06E01H  C2006 03 06.33758 08 36 04.91 +28 41 33.8          17.8 V EE029703
     K06E01H  C2006 03 06.33866 08 36 02.53 +28 42 45.8          18.6 V EE029703
     K06E01H  C2006 03 06.33973 08 35 59.62 +28 44 11.8          18.0 V EE029703
     K06E01H  C2006 03 06.34080 08 35 57.31 +28 45 22.3          18.3 V EE029703

Observer details:
703 Catalina Sky Survey.  Observers A. P. Odell, E. C. Beshore.  Measurers
    E. C. Beshore, E. J. Christensen, G. J. Garradd, A. R. Gibbs, A. D. Grauer,
    R. E. Hill, R. A. Kowalski, S. M. Larson, R. H. McNaught. 0.68-m Schmidt +
    CCD.

Orbital elements:
2006 EH1                                                 Earth MOID = 0.0037 AU
Epoch 2006 Mar. 6.0 TT = JDT 2453800.5                  MPC
M 347.81939              (2000.0)            P               Q
n   0.33954335     Peri.   49.92435     -0.82721949     +0.56126944
a   2.0348820      Node   164.16327     -0.54028260     -0.78177605
e   0.5700011      Incl.    5.50160     -0.15428101     -0.27166674
P   2.90           H   26.5           G   0.15           U   7
Residuals in seconds of arc
060305 703  0.7+  0.4+    060305 703  0.1+  1.7-    060306 703  0.3-  0.8+
060305 703  0.1-  0.1-    060305 703  1.3-  1.3+    060306 703 (2.1+  4.3-)
060305 703  0.1+  1.0-    060305 703  0.4-  0.2+    060306 703 (2.7-  5.2+)
060305 703  0.1-  0.5+    060305 703  0.1+  1.0+    060306 703  0.5+  0.9-
060305 703  0.0   1.3+    060305 703  0.9+  0.9-
060305 703  0.3+  0.7-    060305 703  0.1-  0.6-

Ephemeris:
2006 EH1                 a,e,i = 2.03, 0.57, 6                   q = 0.8750
Date    TT    R. A. (2000) Decl.     Delta      r     Elong.  Phase     V
2006 03 06.0  08 45.94   +23 05.8    0.0120   1.002   142.2    37.3    18.4
2006 03 06.2  08 41.07   +26 09.6    0.0107   1.000   139.8    39.8    18.2
2006 03 06.4  08 34.51   +30 02.2    0.00947  0.999   136.7    43.0    18.0
2006 03 06.6  08 25.19   +35 01.8    0.00828  0.998   132.4    47.2    17.9
2006 03 06.8  08 10.98   +41 32.7    0.00718  0.997   126.6    53.1    17.7
2006 03 07.0  07 46.88   +50 00.1    0.00623  0.995   118.6    61.1    17.6
2006 03 07.2  06 59.04   +60 20.9    0.00550  0.994   107.9    71.8    17.7
2006 03 07.4  05 04.85   +70 04.2    0.00509  0.993    94.5    85.2    18.0
2006 03 07.6  01 43.82   +70 34.1    0.00508  0.992    79.9    99.8    18.6
2006 03 07.8  23 42.08   +61 13.6    0.00547  0.990    66.6   113.1    19.5
2006 03 08.0  22 51.40   +50 52.2    0.00619  0.989    56.1   123.6    20.6

Kyle E. Smalley              (C) Copyright 2006 MPC           M.P.E.C. 2006-E29

Read MPEC 2006-E28 Read MPEC 2006-E30


Our Web policy. Index to the CBAT/MPC/ICQ pages.


Valid HTML 4.01!